CAPE
164 153 112 314 479 469 449 347 4 0 0 0 0 0 0 0 0 0 0 0 0 0 0 0 0 0 0 0 0 0 0 0
166 219 374 451 498 503 547 265 5 1 0 0 0 0 0 0 0 0 0 0 0 0 0 0 0 0 0 0 0 0 0 0
268 337 437 438 469 498 603 320 325 149 29 0 0 0 0 0 0 0 0 0 0 0 0 0 0 0 0 0 0 0 0 0
473 487 520 549 594 610 516 573 269 20 0 0 0 0 0 0 0 0 0 0 0 0 0 0 0 0 0 0 0 0 0 0
544 621 647 598 551 552 490 66 0 0 0 0 0 0 0 0 0 0 0 0 0 0 0 0 0 0 0 0 0 0 1 0
286 127 29 1 0 18 109 5 0 0 0 0 0 0 0 0 0 0 0 0 0 0 0 0 0 0 3 0 0 17 8 5
0 0 0 0 0 0 0 0 0 0 0 0 0 0 0 0 0 0 0 0 0 0 2 0 2 9 15 15 28 35 37 33
0 0 0 0 0 0 0 0 0 0 0 0 0 0 0 0 0 0 0 0 0 0 4 14 33 42 44 32 43 18 28 23
0 0 0 0 0 0 0 0 0 0 0 0 0 0 0 0 0 0 0 0 0 0 3 7 12 35 43 46 34 12 11 20
0 0 0 0 0 0 0 0 0 0 0 0 0 0 0 0 0 0 0 0 0 0 0 0 5 15 30 38 6 15 16 10
0 0 0 0 0 0 0 0 0 0 0 0 0 0 0 0 0 0 0 0 0 0 0 0 0 8 30 14 28 14 15 12
0 0 0 0 0 0 0 0 0 0 0 0 0 0 0 0 0 0 0 0 0 0 0 0 1 13 34 29 19 10 11 5
0 0 0 0 0 0 0 0 0 0 0 0 0 0 0 0 0 0 0 0 0 0 0 4 9 18 24 17 18 2 1 3
0 0 0 0 0 0 0 0 0 0 0 0 0 0 0 0 0 0 0 0 0 0 4 9 5 16 15 12 0 2 2 5
0 0 0 0 0 0 0 0 0 0 0 0 0 0 0 0 0 0 0 0 0 1 4 2 4 8 4 2 1 3 14 13
0 0 0 0 0 0 0 0 0 0 0 0 0 0 0 0 0 0 0 0 1 4 6 8 1 4 1 5 10 11 7 1
0 0 0 0 0 0 0 0 0 0 0 0 0 0 0 0 0 0 0 0 3 7 11 5 6 1 0 0 0 0 0 0
0 0 0 0 0 0 0 0 0 0 0 0 0 0 0 0 0 0 0 0 5 8 12 16 12 9 0 0 0 0 0 0
0 0 0 0 0 0 0 0 0 0 0 0 0 0 0 0 0 0 0 0 0 9 11 14 10 0 0 0 0 0 0 0
CIN
-238 -180 -151 -103 -74 -80 -71 -83 -214 0 0 0 0 0 0 0 0 0 0 0 0 0 0 0 0 0 0 0 0 0 0 0
-262 -250 -172 -127 -104 -73 -37 -86 -65 -28 0 0 0 0 0 0 0 0 0 0 0 0 0 0 0 0 0 0 0 0 0 0
-252 -209 -138 -121 -87 -49 -21 -40 -16 -29 -38 -19 0 0 0 0 0 0 0 0 0 0 0 0 0 0 0 0 0 0 0 0
-160 -133 -105 -69 -38 -23 -23 -1 -10 -20 0 0 0 0 0 0 0 0 0 0 0 0 0 0 0 0 0 0 0 0 0 0
-112 -78 -53 -39 -33 -21 -6 -50 0 0 0 0 0 0 0 0 0 0 0 0 0 0 0 0 0 0 0 0 0 -0 -1 0
-129 -147 -176 -172 0 -134 -52 -76 0 0 0 0 0 0 0 0 0 0 0 0 0 0 0 0 0 0 -1 0 -0 -2 -1 -2
0 0 0 0 0 0 0 0 0 0 0 0 0 0 0 0 0 0 0 0 0 -0 -0 0 -1 -1 -2 -2 -2 -2 -1 -1
0 0 0 0 0 0 0 0 0 0 0 0 0 0 0 0 0 0 0 0 0 0 -1 -1 -1 -1 -1 -3 -2 -2 -2 -2
0 0 0 0 0 0 0 0 0 0 0 0 0 0 0 0 0 0 0 0 0 0 -1 -0 -0 -1 -1 -1 -1 -3 -3 -2
0 0 0 0 0 0 0 0 0 0 0 0 0 0 0 0 0 0 0 0 0 0 0 -0 -0 -0 -1 -1 -2 -3 -3 -2
0 0 0 0 0 0 0 0 0 0 0 0 0 0 0 0 0 0 0 0 0 0 0 0 0 -1 -1 -2 -1 -3 -2 -2
0 0 0 0 0 0 0 0 0 0 0 0 0 0 0 0 0 0 0 0 0 0 0 0 -1 -2 -2 -1 -2 -2 -1 -1
0 0 0 0 0 0 0 0 0 0 0 0 0 0 0 0 0 0 0 0 0 0 -0 -1 -2 -1 -1 -1 -1 -3 -2 -3
0 0 0 0 0 0 0 0 0 0 0 0 0 0 0 0 0 0 0 0 0 0 -1 -1 -1 -0 -1 -1 -1 -1 -2 -1
0 0 0 0 0 0 0 0 0 0 0 0 0 0 0 0 0 0 0 0 0 -2 -1 -1 -1 -0 -1 -1 -1 -1 -1 -1
0 0 0 0 0 0 0 0 0 0 0 0 0 0 0 0 0 0 0 0 -0 -2 -1 -0 -0 -1 -0 -1 -1 -1 -1 -0
0 0 0 0 0 0 0 0 0 0 0 0 0 0 0 0 0 0 0 0 -1 -1 -0 -1 -0 -0 0 0 0 0 0 0
0 0 0 0 0 0 0 0 0 0 0 0 0 0 0 0 0 0 0 0 -1 -0 -0 -1 -0 -1 0 0 0 0 0 0
0 0 0 0 0 0 0 0 0 0 0 0 0 0 0 0 0 0 0 0 -0 -1 -1 -1 -0 -0 0 0 0 0 0 0
Wind_Speed
6 6 6 5 6 5 5 4 5 7 14 12 15 12 13 12 13 14 14 15 16 18 20 24 27 29 32 35 37 37 37 37
7 7 5 5 4 3 3 4 6 10 14 11 12 13 13 13 14 15 15 16 18 20 23 25 28 29 31 32 34 36 37 37
7 6 5 4 4 3 4 4 6 9 10 11 12 13 13 15 15 16 15 16 18 21 24 25 27 29 30 33 35 37 38 38
6 5 5 6 5 6 6 6 6 8 10 11 13 13 14 15 16 17 17 18 21 24 25 28 28 30 33 33 35 38 41 39
6 6 7 8 8 8 8 7 8 9 10 12 13 15 16 19 18 19 19 20 23 26 28 29 30 31 32 33 34 37 38 40
6 7 8 8 9 8 8 8 8 10 11 12 13 16 17 17 19 20 22 24 27 29 30 30 30 31 31 32 32 37 36 35
7 8 9 10 10 10 9 9 9 11 12 13 14 16 17 20 23 25 27 29 30 31 31 31 31 31 30 30 33 36 34 34
10 9 9 9 9 9 9 9 10 11 12 14 17 19 21 23 26 28 31 32 32 34 35 34 31 30 30 29 34 34 32 32
10 9 7 7 7 8 8 9 10 11 13 15 19 21 23 26 27 29 30 32 34 35 34 33 32 31 31 30 33 32 30 29
8 6 5 5 6 7 8 9 11 13 14 17 20 23 25 26 28 29 30 32 33 34 35 35 34 33 32 31 32 32 30 27
4 3 2 4 5 7 9 10 12 13 15 18 21 23 23 26 28 30 31 32 34 37 38 38 36 34 31 30 31 29 29 26
2 1 3 4 6 7 8 10 12 14 16 19 21 22 24 26 28 30 32 34 37 38 38 37 35 33 30 29 29 29 26 24
2 3 3 5 6 7 9 11 12 15 17 19 21 23 25 27 29 30 32 36 37 37 37 36 34 31 30 30 29 24 24 24
4 4 5 6 7 8 10 12 14 15 17 20 22 25 26 27 29 31 34 36 37 36 35 35 34 31 30 26 24 23 22 23
7 7 7 7 8 9 11 14 14 16 18 21 25 26 26 27 29 32 35 36 36 35 34 33 30 28 25 23 23 21 22 25
9 10 10 9 9 10 12 15 15 16 20 23 26 26 25 26 30 33 35 34 34 33 32 30 28 24 23 22 21 23 25 27
11 11 11 10 10 12 14 14 16 18 22 24 26 25 25 27 31 33 33 33 33 32 31 29 25 22 21 21 23 25 26 27
12 12 12 10 11 13 14 14 17 20 22 24 24 24 26 29 31 32 33 34 31 31 28 26 23 20 19 21 24 26 26 27
12 12 11 11 12 12 14 16 18 20 23 23 24 26 27 29 30 32 33 33 31 29 26 23 20 18 19 21 24 24 25 27
Wind_Direction
17 13 23 56 81 88 79 45 10 353 335 356 357 25 30 34 31 21 14 11 5 358 352 345 341 337 334 332 332 332 331 330
358 356 27 34 28 34 69 22 1 352 351 12 18 15 25 27 19 16 17 9 2 355 348 344 342 339 338 338 337 335 332 331
357 13 17 12 22 38 34 37 11 11 23 30 25 25 19 12 16 15 16 10 4 355 349 345 342 340 338 337 336 333 331 331
3 12 23 39 57 53 58 42 43 29 36 31 22 19 16 8 3 1 1 359 353 348 344 341 339 337 335 335 335 334 330 330
31 43 62 72 67 54 40 48 45 31 17 6 5 360 355 354 355 355 354 350 345 342 340 338 336 336 334 333 334 335 333 329
66 74 70 67 57 50 48 45 35 27 16 11 5 360 2 2 357 351 346 343 340 338 337 336 335 334 334 334 335 334 333 331
89 84 80 72 54 52 59 58 40 25 17 14 10 6 1 354 349 344 342 339 338 338 337 335 333 333 333 334 334 334 333 332
115 106 96 76 65 64 62 53 38 32 23 12 4 359 352 348 345 343 339 338 337 336 335 333 333 333 333 332 333 332 332 331
126 118 100 79 64 59 53 43 33 21 10 4 356 350 347 344 344 343 341 339 337 337 337 337 335 333 331 330 331 332 331 331
133 119 97 57 45 35 27 19 12 7 1 354 352 347 345 344 344 344 342 341 341 340 339 336 334 332 330 329 329 330 330 329
143 127 43 24 20 11 5 3 2 359 354 350 347 348 348 345 344 344 343 343 341 339 337 336 334 332 330 329 329 330 330 329
192 281 340 354 353 355 356 354 352 350 348 346 347 346 345 344 343 344 343 342 340 339 338 337 336 334 333 331 331 332 331 330
252 281 308 325 330 337 342 342 343 346 345 345 343 343 342 341 342 343 343 341 341 340 340 340 339 338 337 335 334 336 335 333
273 279 289 307 316 324 331 335 338 341 343 341 341 340 340 340 341 342 341 341 341 342 342 341 341 339 338 341 343 340 338 337
280 282 290 301 308 316 322 328 331 336 339 339 338 338 338 339 340 340 340 341 341 342 344 344 346 346 348 347 346 346 342 339
281 285 294 297 304 312 319 327 329 335 337 336 336 337 338 339 339 339 340 341 342 343 344 346 347 349 351 351 350 346 342 338
286 288 293 295 302 311 323 323 329 334 334 334 336 337 338 338 338 339 340 341 342 344 345 347 350 352 355 354 349 345 341 341
290 291 295 298 306 315 321 326 331 332 333 334 337 338 337 337 338 339 339 340 343 343 344 347 348 351 355 353 349 345 344 343
297 299 302 309 318 323 328 331 332 333 334 335 337 336 335 336 337 338 339 341 341 342 345 347 348 352 353 351 348 347 346 345